GLD1793 TFFM-TFFA

Flight info

Callsign GLD1793
Flight time 0h 14m
Altitude 3000
Route SEDOG
Aircraft BE58/L-SDFGRY/C

Departure

Time 2026-05-04 20:58
Airport Marie-Galante Airport (TFFM)

Arrival

Time 2026-05-04 21:12
Airport La Désirade Airport (TFFA)
Time Latitude Longitude Altitude Speed Heading
2026-05-04 20:48 15.86932 -61.27201 21 ft 0 kts 258°
2026-05-04 20:53 15.86926 -61.27226 21 ft 10 kts 246°
2026-05-04 20:53 15.86849 -61.27224 19 ft 7 kts 110°
2026-05-04 20:53 15.86850 -61.27220 19 ft 0 kts 69°
2026-05-04 20:53 15.86874 -61.27219 19 ft 12 kts 348°
2026-05-04 20:54 15.86925 -61.27245 21 ft 0 kts 240°
2026-05-04 20:56 15.86918 -61.27252 21 ft 1 kts 187°
2026-05-04 20:57 15.86854 -61.27228 19 ft 6 kts 141°
2026-05-04 20:57 15.86882 -61.27056 21 ft 63 kts 78°
2026-05-04 20:57 15.87045 -61.26407 116 ft 108 kts 79°
2026-05-04 20:57 15.87229 -61.25632 517 ft 112 kts 81°
2026-05-04 20:58 15.87421 -61.24867 1035 ft 111 kts 73°
2026-05-04 20:58 15.87766 -61.24036 1257 ft 138 kts 71°
2026-05-04 20:58 15.88158 -61.23022 1193 ft 167 kts 59°
2026-05-04 20:58 15.89169 -61.22389 1327 ft 180 kts 14°
2026-05-04 20:59 15.90435 -61.22630 1486 ft 193 kts 340°
2026-05-04 20:59 15.91742 -61.22922 1642 ft 192 kts 358°
2026-05-04 20:59 15.93072 -61.23025 1797 ft 192 kts 359°
2026-05-04 20:59 15.94387 -61.23162 1947 ft 187 kts
2026-05-04 21:00 15.95639 -61.22875 1996 ft 188 kts 25°
2026-05-04 21:00 15.96914 -61.22484 2000 ft 196 kts 18°
2026-05-04 21:00 15.98283 -61.22210 2007 ft 201 kts 15°
2026-05-04 21:00 15.99670 -61.21965 2007 ft 203 kts 14°
2026-05-04 21:01 16.01077 -61.21707 2003 ft 206 kts 15°
2026-05-04 21:01 16.02496 -61.21443 2005 ft 207 kts 14°
2026-05-04 21:01 16.03906 -61.21179 2003 ft 210 kts 15°
2026-05-04 21:01 16.05335 -61.20913 2000 ft 209 kts 14°
2026-05-04 21:02 16.06767 -61.20646 2002 ft 209 kts 15°
2026-05-04 21:02 16.08210 -61.20377 2001 ft 209 kts 15°
2026-05-04 21:02 16.09640 -61.20111 2001 ft 208 kts 15°
2026-05-04 21:02 16.11064 -61.19846 2001 ft 208 kts 14°
2026-05-04 21:03 16.12488 -61.19581 2003 ft 207 kts 16°
2026-05-04 21:03 16.13893 -61.19318 2004 ft 208 kts 15°
2026-05-04 21:03 16.15317 -61.19052 1999 ft 207 kts 15°
2026-05-04 21:03 16.16736 -61.18789 2002 ft 207 kts 14°
2026-05-04 21:04 16.18152 -61.18525 2001 ft 206 kts 15°
2026-05-04 21:04 16.19568 -61.18260 2000 ft 208 kts 14°
2026-05-04 21:04 16.20987 -61.17995 1998 ft 207 kts 14°
2026-05-04 21:04 16.22400 -61.17732 2000 ft 206 kts 15°
2026-05-04 21:05 16.23806 -61.17470 1993 ft 202 kts 15°
2026-05-04 21:05 16.25047 -61.17248 1981 ft 160 kts 15°
2026-05-04 21:05 16.26033 -61.17028 1852 ft 141 kts 28°
2026-05-04 21:05 16.26830 -61.16510 1663 ft 124 kts 49°
2026-05-04 21:06 16.27389 -61.15902 1361 ft 116 kts 54°
2026-05-04 21:06 16.27869 -61.15177 1107 ft 123 kts 69°
2026-05-04 21:06 16.28156 -61.14352 963 ft 119 kts 76°
2026-05-04 21:06 16.28427 -61.13575 898 ft 112 kts 74°
2026-05-04 21:07 16.28663 -61.12787 652 ft 112 kts 80°
2026-05-04 21:07 16.28828 -61.12000 479 ft 112 kts 82°
2026-05-04 21:07 16.28933 -61.11226 378 ft 104 kts 89°
2026-05-04 21:07 16.29052 -61.10480 274 ft 108 kts 81°
2026-05-04 21:08 16.29301 -61.09689 206 ft 122 kts 74°
2026-05-04 21:08 16.29580 -61.08818 55 ft 129 kts 76°
2026-05-04 21:08 16.29851 -61.07977 204 ft 124 kts 78°
2026-05-04 21:08 16.29866 -61.07095 446 ft 119 kts 116°
2026-05-04 21:09 16.29200 -61.06633 706 ft 127 kts 168°
2026-05-04 21:09 16.28311 -61.06841 829 ft 141 kts 202°
2026-05-04 21:09 16.27586 -61.07505 892 ft 136 kts 231°
2026-05-04 21:09 16.27357 -61.08402 916 ft 130 kts 279°
2026-05-04 21:10 16.27876 -61.09097 859 ft 123 kts 342°
2026-05-04 21:10 16.28735 -61.09465 555 ft 139 kts 353°
2026-05-04 21:10 16.29497 -61.09076 232 ft 136 kts 72°
2026-05-04 21:10 16.29800 -61.08167 72 ft 120 kts 74°
2026-05-04 21:11 16.29855 -61.07363 344 ft 110 kts 125°
2026-05-04 21:11 16.29097 -61.07241 565 ft 129 kts 192°
2026-05-04 21:11 16.28439 -61.07947 434 ft 147 kts 253°
2026-05-04 21:11 16.28564 -61.08934 316 ft 130 kts 296°
2026-05-04 21:12 16.29216 -61.09308 193 ft 105 kts 30°
2026-05-04 21:12 16.29605 -61.08750 32 ft 95 kts 77°
2026-05-04 21:12 16.29762 -61.08248 15 ft 33 kts 79°
2026-05-04 21:12 16.29776 -61.08237 17 ft 10 kts 243°
2026-05-04 21:13 16.29750 -61.08301 18 ft 9 kts 248°
2026-05-04 21:13 16.29730 -61.08355 15 ft 7 kts 250°
2026-05-04 21:13 16.29715 -61.08400 16 ft 7 kts 250°
2026-05-04 21:13 16.29698 -61.08455 14 ft 10 kts 253°
2026-05-04 21:14 16.29668 -61.08545 15 ft 15 kts 247°
2026-05-04 21:14 16.29635 -61.08644 17 ft 13 kts 258°
2026-05-04 21:14 16.29676 -61.08699 16 ft 1 kts 298°